Time,TemperatureF,DewpointF,PressureIn,WindDirection,WindDirectionDegrees,WindSpeedMPH,WindSpeedGustMPH,Humidity,HourlyPrecipIn,Conditions,Clouds,dailyrainin,SoftwareType,DateUTC
2013-03-17 00:00:00,30.0,28.0,29.85,NW,312,2.0,5.0,92,-99.99,,,-99.99,,2013-03-17 04:00:00,
2013-03-17 00:23:00,30.0,28.0,29.85,NW,312,2.0,5.0,92,-99.99,,,-99.99,,2013-03-17 04:23:00,
2013-03-17 00:33:00,30.0,28.0,29.85,NW,312,2.0,5.0,92,-99.99,,,-99.99,,2013-03-17 04:33:00,
2013-03-17 00:43:00,30.0,28.0,29.85,NW,312,2.0,5.0,92,-99.99,,,-99.99,,2013-03-17 04:43:00,
2013-03-17 00:53:00,30.0,28.0,29.85,NW,312,2.0,5.0,92,-99.99,,,-99.99,,2013-03-17 04:53:00,
2013-03-17 01:00:00,29.0,27.0,29.85,West,275,0.0,3.0,93,-99.99,,,-99.99,,2013-03-17 05:00:00,
2013-03-17 01:32:00,29.0,27.0,29.85,West,275,0.0,3.0,93,-99.99,,,-99.99,,2013-03-17 05:32:00,
2013-03-17 01:42:00,29.0,27.0,29.85,West,275,0.0,3.0,93,-99.99,,,-99.99,,2013-03-17 05:42:00,
2013-03-17 01:52:00,29.0,27.0,29.85,West,275,0.0,3.0,93,-99.99,,,-99.99,,2013-03-17 05:52:00,
2013-03-17 02:00:00,28.0,26.0,29.85,North,4,0.0,0.0,96,-99.99,,,-99.99,,2013-03-17 06:00:00,
2013-03-17 02:22:00,28.0,26.0,29.85,North,4,0.0,0.0,96,-99.99,,,-99.99,,2013-03-17 06:22:00,
2013-03-17 02:32:00,28.0,26.0,29.85,North,4,0.0,0.0,96,-99.99,,,-99.99,,2013-03-17 06:32:00,
2013-03-17 02:42:00,28.0,26.0,29.85,North,4,0.0,0.0,96,-99.99,,,-99.99,,2013-03-17 06:42:00,
2013-03-17 02:53:00,28.0,26.0,29.85,North,4,0.0,0.0,96,-99.99,,,-99.99,,2013-03-17 06:53:00,
2013-03-17 03:00:00,27.0,26.0,29.88,WSW,252,2.0,4.0,96,-99.99,,,-99.99,,2013-03-17 07:00:00,
2013-03-17 03:22:00,27.0,26.0,29.88,WSW,252,2.0,4.0,96,-99.99,,,-99.99,,2013-03-17 07:22:00,
2013-03-17 03:32:00,27.0,26.0,29.88,WSW,252,2.0,4.0,96,-99.99,,,-99.99,,2013-03-17 07:32:00,
2013-03-17 03:42:00,27.0,26.0,29.88,WSW,252,2.0,4.0,96,-99.99,,,-99.99,,2013-03-17 07:42:00,
2013-03-17 03:52:00,27.0,26.0,29.88,WSW,252,2.0,4.0,96,-99.99,,,-99.99,,2013-03-17 07:52:00,
2013-03-17 04:00:00,27.0,25.0,29.91,North,6,1.0,5.0,96,-99.99,,,-99.99,,2013-03-17 08:00:00,
2013-03-17 04:33:00,27.0,25.0,29.91,North,6,1.0,5.0,96,-99.99,,,-99.99,,2013-03-17 08:33:00,
2013-03-17 04:42:00,27.0,25.0,29.91,North,6,1.0,5.0,96,-99.99,,,-99.99,,2013-03-17 08:42:00,
2013-03-17 04:52:00,27.0,25.0,29.91,North,6,1.0,5.0,96,-99.99,,,-99.99,,2013-03-17 08:52:00,
2013-03-17 05:00:00,27.0,24.0,29.91,North,0,2.0,6.0,93,-99.99,,,-99.99,,2013-03-17 09:00:00,
2013-03-17 05:22:00,27.0,24.0,29.91,North,0,2.0,6.0,93,-99.99,,,-99.99,,2013-03-17 09:22:00,
2013-03-17 05:33:00,27.0,24.0,29.91,North,0,2.0,6.0,93,-99.99,,,-99.99,,2013-03-17 09:33:00,
2013-03-17 05:43:00,27.0,24.0,29.91,North,0,2.0,6.0,93,-99.99,,,-99.99,,2013-03-17 09:43:00,
2013-03-17 05:53:00,27.0,24.0,29.91,North,0,2.0,6.0,93,-99.99,,,-99.99,,2013-03-17 09:53:00,
2013-03-17 06:00:00,28.0,24.0,29.94,NNW,328,4.0,5.0,88,-99.99,,,-99.99,,2013-03-17 10:00:00,
2013-03-17 06:33:00,28.0,24.0,29.94,NNW,328,4.0,5.0,88,-99.99,,,-99.99,,2013-03-17 10:33:00,
2013-03-17 06:42:00,28.0,24.0,29.94,NNW,328,4.0,5.0,88,-99.99,,,-99.99,,2013-03-17 10:42:00,
2013-03-17 06:53:00,28.0,24.0,29.94,NNW,328,4.0,5.0,88,-99.99,,,-99.99,,2013-03-17 10:53:00,
2013-03-17 07:00:00,26.0,19.0,29.97,NW,321,4.0,13.0,74,-99.99,,,-99.99,,2013-03-17 11:00:00,
2013-03-17 07:32:00,26.0,19.0,29.97,NW,321,4.0,13.0,74,-99.99,,,-99.99,,2013-03-17 11:32:00,
2013-03-17 07:43:00,26.0,19.0,29.97,NW,321,4.0,13.0,74,-99.99,,,-99.99,,2013-03-17 11:43:00,
2013-03-17 07:52:00,26.0,19.0,29.97,NW,321,4.0,13.0,74,-99.99,,,-99.99,,2013-03-17 11:52:00,
2013-03-17 08:00:00,26.0,17.0,30.03,NNW,341,4.0,15.0,69,-99.99,,,-99.99,,2013-03-17 12:00:00,
2013-03-17 08:22:00,26.0,17.0,30.03,NNW,341,4.0,15.0,69,-99.99,,,-99.99,,2013-03-17 12:22:00,
2013-03-17 08:33:00,26.0,17.0,30.03,NNW,341,4.0,15.0,69,-99.99,,,-99.99,,2013-03-17 12:33:00,
2013-03-17 08:43:00,26.0,17.0,30.03,NNW,341,4.0,15.0,69,-99.99,,,-99.99,,2013-03-17 12:43:00,
2013-03-17 08:52:00,26.0,17.0,30.03,NNW,341,4.0,15.0,69,-99.99,,,-99.99,,2013-03-17 12:52:00,
2013-03-17 09:00:00,28.0,15.0,30.06,NW,313,11.0,14.0,58,-99.99,,,-99.99,,2013-03-17 13:00:00,
2013-03-17 09:32:00,28.0,15.0,30.06,NW,313,11.0,14.0,58,-99.99,,,-99.99,,2013-03-17 13:32:00,
2013-03-17 09:43:00,28.0,15.0,30.06,NW,313,11.0,14.0,58,-99.99,,,-99.99,,2013-03-17 13:43:00,
2013-03-17 09:52:00,28.0,15.0,30.06,NW,313,11.0,14.0,58,-99.99,,,-99.99,,2013-03-17 13:52:00,
2013-03-17 10:00:00,28.0,14.0,30.09,NNE,32,7.0,15.0,56,-99.99,,,-99.99,,2013-03-17 14:00:00,
2013-03-17 10:22:00,28.0,14.0,30.09,NNE,32,7.0,15.0,56,-99.99,,,-99.99,,2013-03-17 14:22:00,
2013-03-17 10:33:00,28.0,14.0,30.09,NNE,32,7.0,15.0,56,-99.99,,,-99.99,,2013-03-17 14:33:00,
2013-03-17 10:43:00,28.0,14.0,30.09,NNE,32,7.0,15.0,56,-99.99,,,-99.99,,2013-03-17 14:43:00,
2013-03-17 10:53:00,28.0,14.0,30.09,NNE,32,7.0,15.0,56,-99.99,,,-99.99,,2013-03-17 14:53:00,
2013-03-17 11:00:00,29.0,13.0,30.06,NE,36,8.0,14.0,53,-99.99,,,-99.99,,2013-03-17 15:00:00,
2013-03-17 11:23:00,29.0,13.0,30.06,NE,36,8.0,14.0,53,-99.99,,,-99.99,,2013-03-17 15:23:00,
2013-03-17 11:33:00,29.0,13.0,30.06,NE,36,8.0,14.0,53,-99.99,,,-99.99,,2013-03-17 15:33:00,
2013-03-17 11:43:00,29.0,13.0,30.06,NE,36,8.0,14.0,53,-99.99,,,-99.99,,2013-03-17 15:43:00,
2013-03-17 11:53:00,29.0,13.0,30.06,NE,36,8.0,14.0,53,-99.99,,,-99.99,,2013-03-17 15:53:00,
2013-03-17 12:00:00,31.0,15.0,30.09,NNW,331,13.0,16.0,51,-99.99,,,-99.99,,2013-03-17 16:00:00,
2013-03-17 12:23:00,31.0,15.0,30.09,NNW,331,13.0,16.0,51,-99.99,,,-99.99,,2013-03-17 16:23:00,
2013-03-17 12:34:00,31.0,15.0,30.09,NNW,331,13.0,16.0,51,-99.99,,,-99.99,,2013-03-17 16:34:00,
2013-03-17 12:43:00,31.0,15.0,30.09,NNW,331,13.0,16.0,51,-99.99,,,-99.99,,2013-03-17 16:43:00,
2013-03-17 12:52:00,31.0,15.0,30.09,NNW,331,13.0,16.0,51,-99.99,,,-99.99,,2013-03-17 16:52:00,
2013-03-17 13:00:00,32.0,15.0,30.09,NW,323,10.0,19.0,50,-99.99,,,-99.99,,2013-03-17 17:00:00,
2013-03-17 13:22:00,32.0,15.0,30.09,NW,323,10.0,19.0,50,-99.99,,,-99.99,,2013-03-17 17:22:00,
2013-03-17 13:33:00,32.0,15.0,30.09,NW,323,10.0,19.0,50,-99.99,,,-99.99,,2013-03-17 17:33:00,
2013-03-17 13:42:00,32.0,15.0,30.09,NW,323,10.0,19.0,50,-99.99,,,-99.99,,2013-03-17 17:42:00,
2013-03-17 13:53:00,32.0,15.0,30.09,NW,323,10.0,19.0,50,-99.99,,,-99.99,,2013-03-17 17:53:00,
2013-03-17 14:00:00,33.0,16.0,30.09,WNW,299,9.0,19.0,49,-99.99,,,-99.99,,2013-03-17 18:00:00,
2013-03-17 14:32:00,33.0,16.0,30.09,WNW,299,9.0,19.0,49,-99.99,,,-99.99,,2013-03-17 18:32:00,
2013-03-17 14:42:00,33.0,16.0,30.09,WNW,299,9.0,19.0,49,-99.99,,,-99.99,,2013-03-17 18:42:00,
2013-03-17 14:52:00,33.0,16.0,30.09,WNW,299,9.0,19.0,49,-99.99,,,-99.99,,2013-03-17 18:52:00,
2013-03-17 15:00:00,33.0,16.0,30.09,NW,311,10.0,20.0,50,-99.99,,,-99.99,,2013-03-17 19:00:00,
2013-03-17 15:23:00,33.0,16.0,30.09,NW,311,10.0,20.0,50,-99.99,,,-99.99,,2013-03-17 19:23:00,
2013-03-17 15:33:00,33.0,16.0,30.09,NW,311,10.0,20.0,50,-99.99,,,-99.99,,2013-03-17 19:33:00,
2013-03-17 15:42:00,33.0,16.0,30.09,NW,311,10.0,20.0,50,-99.99,,,-99.99,,2013-03-17 19:42:00,
2013-03-17 15:53:00,33.0,16.0,30.09,NW,311,10.0,20.0,50,-99.99,,,-99.99,,2013-03-17 19:53:00,
2013-03-17 16:00:00,34.0,15.0,30.09,NNW,347,10.0,20.0,45,-99.99,,,-99.99,,2013-03-17 20:00:00,
2013-03-17 16:23:00,34.0,15.0,30.09,NNW,347,10.0,20.0,45,-99.99,,,-99.99,,2013-03-17 20:23:00,
2013-03-17 16:33:00,34.0,15.0,30.09,NNW,347,10.0,20.0,45,-99.99,,,-99.99,,2013-03-17 20:33:00,
2013-03-17 16:43:00,34.0,15.0,30.09,NNW,347,10.0,20.0,45,-99.99,,,-99.99,,2013-03-17 20:43:00,
2013-03-17 16:52:00,34.0,15.0,30.09,NNW,347,10.0,20.0,45,-99.99,,,-99.99,,2013-03-17 20:52:00,
2013-03-17 17:00:00,34.0,13.0,30.09,NW,306,10.0,19.0,42,-99.99,,,-99.99,,2013-03-17 21:00:00,
2013-03-17 17:23:00,34.0,13.0,30.09,NW,306,10.0,19.0,42,-99.99,,,-99.99,,2013-03-17 21:23:00,
2013-03-17 17:33:00,34.0,13.0,30.09,NW,306,10.0,19.0,42,-99.99,,,-99.99,,2013-03-17 21:33:00,
2013-03-17 17:43:00,34.0,13.0,30.09,NW,306,10.0,19.0,42,-99.99,,,-99.99,,2013-03-17 21:43:00,
2013-03-17 17:52:00,34.0,13.0,30.09,NW,306,10.0,19.0,42,-99.99,,,-99.99,,2013-03-17 21:52:00,
2013-03-17 18:00:00,33.0,13.0,30.12,NNW,332,10.0,15.0,42,-99.99,,,-99.99,,2013-03-17 22:00:00,
2013-03-17 18:23:00,33.0,13.0,30.12,NNW,332,10.0,15.0,42,-99.99,,,-99.99,,2013-03-17 22:23:00,
2013-03-17 18:33:00,33.0,13.0,30.12,NNW,332,10.0,15.0,42,-99.99,,,-99.99,,2013-03-17 22:33:00,
2013-03-17 18:42:00,33.0,13.0,30.12,NNW,332,10.0,15.0,42,-99.99,,,-99.99,,2013-03-17 22:42:00,
2013-03-17 18:53:00,33.0,13.0,30.12,NNW,332,10.0,15.0,42,-99.99,,,-99.99,,2013-03-17 22:53:00,
2013-03-17 19:00:00,32.0,14.0,30.15,NW,312,2.0,15.0,46,-99.99,,,-99.99,,2013-03-17 23:00:00,
2013-03-17 19:23:00,32.0,14.0,30.15,NW,312,2.0,15.0,46,-99.99,,,-99.99,,2013-03-17 23:23:00,
2013-03-17 19:33:00,32.0,14.0,30.15,NW,312,2.0,15.0,46,-99.99,,,-99.99,,2013-03-17 23:33:00,
2013-03-17 19:43:00,32.0,14.0,30.15,NW,312,2.0,15.0,46,-99.99,,,-99.99,,2013-03-17 23:43:00,
2013-03-17 19:53:00,32.0,14.0,30.15,NW,312,2.0,15.0,46,-99.99,,,-99.99,,2013-03-17 23:53:00,
2013-03-17 20:00:00,31.0,13.0,30.18,NNW,342,0.0,7.0,48,-99.99,,,-99.99,,2013-03-18 00:00:00,
2013-03-17 20:22:00,31.0,13.0,30.18,NNW,342,0.0,7.0,48,-99.99,,,-99.99,,2013-03-18 00:22:00,
2013-03-17 20:33:00,31.0,13.0,30.18,NNW,342,0.0,7.0,48,-99.99,,,-99.99,,2013-03-18 00:33:00,
2013-03-17 20:42:00,31.0,13.0,30.18,NNW,342,0.0,7.0,48,-99.99,,,-99.99,,2013-03-18 00:42:00,
2013-03-17 20:53:00,31.0,13.0,30.18,NNW,342,0.0,7.0,48,-99.99,,,-99.99,,2013-03-18 00:53:00,
2013-03-17 21:00:00,30.0,13.0,30.18,NW,326,0.0,5.0,48,-99.99,,,-99.99,,2013-03-18 01:00:00,
2013-03-17 21:22:00,30.0,13.0,30.18,NW,326,0.0,5.0,48,-99.99,,,-99.99,,2013-03-18 01:22:00,
2013-03-17 21:33:00,30.0,13.0,30.18,NW,326,0.0,5.0,48,-99.99,,,-99.99,,2013-03-18 01:33:00,
2013-03-17 21:42:00,30.0,13.0,30.18,NW,326,0.0,5.0,48,-99.99,,,-99.99,,2013-03-18 01:42:00,
2013-03-17 21:52:00,30.0,13.0,30.18,NW,326,0.0,5.0,48,-99.99,,,-99.99,,2013-03-18 01:52:00,
2013-03-17 22:00:00,30.0,13.0,30.21,North,7,0.0,4.0,48,-99.99,,,-99.99,,2013-03-18 02:00:00,
2013-03-17 22:22:00,30.0,13.0,30.21,North,7,0.0,4.0,48,-99.99,,,-99.99,,2013-03-18 02:22:00,
2013-03-17 22:32:00,30.0,13.0,30.21,North,7,0.0,4.0,48,-99.99,,,-99.99,,2013-03-18 02:32:00,
2013-03-17 22:42:00,30.0,13.0,30.21,North,7,0.0,4.0,48,-99.99,,,-99.99,,2013-03-18 02:42:00,
2013-03-17 22:52:00,30.0,13.0,30.21,North,7,0.0,4.0,48,-99.99,,,-99.99,,2013-03-18 02:52:00,
2013-03-17 23:00:00,29.0,12.0,30.21,NNW,339,0.0,5.0,50,-99.99,,,-99.99,,2013-03-18 03:00:00,
2013-03-17 23:22:00,29.0,12.0,30.21,NNW,339,0.0,5.0,50,-99.99,,,-99.99,,2013-03-18 03:22:00,
2013-03-17 23:33:00,29.0,12.0,30.21,NNW,339,0.0,5.0,50,-99.99,,,-99.99,,2013-03-18 03:33:00,
2013-03-17 23:42:00,29.0,12.0,30.21,NNW,339,0.0,5.0,50,-99.99,,,-99.99,,2013-03-18 03:42:00,
2013-03-17 23:53:00,29.0,12.0,30.21,NNW,339,0.0,5.0,50,-99.99,,,-99.99,,2013-03-18 03:53:00,